Location: Waco, TX
(31.5480°N, 97.1670°W)
Time: 22:55:17
(UTC-05:00)

ISS - Pass Details

Date: 17 April 2018
Orbit: 403 x 406 km, 51.6° (Epoch: 23 April)

Event Time Altitude Azimuth Distance (km) Brightness Sun altitude
Rises 19:52:13 0° 298° (WNW) 2,323 1.9 0.6°
Reaches altitude 10° 19:54:41 10° 279° (W) 1,460 1.3 0.0°
Maximum altitude 19:57:04 19° 233° (SW) 1,047 -1.1 -0.4°
Drops below altitude 10° 19:59:26 10° 186° (S) 1,454 -1.1 -0.9°
Sets 20:01:54 0° 167° (SSE) 2,309 -0.3 -1.4°
